Back to catalog

STARLINK-30495

AliveCommunicationsVLEO
NORAD 57968·PAYLOAD·🇺🇸 United States

Launched Sep 30, 2023 from Cape Canaveral Space Force Station

Loading…

Next Passes (next 24 hours)

TLE

FreshSource: CelesTrak SupGP

Epoch: Sep 14, 2026, 13:23 UTC

1 57968C 23151E   26257.55812500 -.00010480  00000+0 -37973-3 0  2578
2 57968  43.0034 349.3959 0001371 272.8799 358.5650 15.27571845    17

Track STARLINK-30495 in real time with AllMySat

Download on the App Store